Regional Weather Roundup
Issued by NWS

Home | Current Version | Previous Version | Graphics & Text | Print | Product List | Glossary On
Versions: 1 2 3 4 5 6 7 8 9 10 11 12 13 14 15 16 17 18 19 20 21 22 23 24 25 26 27 28 29 30 31 32 33 34 35 36 37 38 39 40 41 42 43 44 45 46 47 48 49 50
000
ASUS43 KOAX 261210
RWRNE

WEATHER ROUNDUP FOR NEBRASKA
NATIONAL WEATHER SERVICE OMAHA NE
600 AM CST WED NOV 26 2014

NOTES: SATELLITE DATA IS BEING USED TO AUGMENT CLOUD COVER ABOVE
       12000 FEET.
       "FAIR" INDICATES FEW OR NO CLOUDS BELOW 12,000 FEET WITH NO
       SIGNIFICANT WEATHER AND/OR OBSTRUCTIONS TO VISIBILITY.

  * THESE STATIONS DO NOT REPORT WEATHER SUCH AS RAIN...SNOW OR FOG.

NEZ001>004-019>022-054>056-261300-
NEBRASKA PANHANDLE

CITY           SKY/WX    TMP DP  RH WIND       PRES   REMARKS
SCOTTSBLUFF    CLOUDY    30  24  78 NW9       30.17R WCI  22
6HR MIN TEMP:  30; 6HR MAX TEMP:  32;

ALLIANCE       CLOUDY    25  20  81 N13       30.16R WCI  14
6HR MIN TEMP:  25; 6HR MAX TEMP:  33;

CHADRON        CLOUDY    33  21  61 N10       30.20R WCI  25
6HR MIN TEMP:  32; 6HR MAX TEMP:  46;

KIMBALL        LGT SNOW  27  24  89 NW9       30.14R WCI  17
SIDNEY         CLOUDY    28  24  85 NW10      30.16R WCI  19
6HR MIN TEMP:  28; 6HR MAX TEMP:  31;

$$

NEZ057>060-069>072-079>082-261300-
SOUTHWEST NEBRASKA

CITY           SKY/WX    TMP DP  RH WIND       PRES   REMARKS
NORTH PLATTE   MOCLDY    30  20  66 N22G32    30.12R WCI  17
6HR MIN TEMP:  30; 6HR MAX TEMP:  38; 6HR PCP:  0.02;

IMPERIAL       CLOUDY    34  22  61 NW14      30.14R WCI  25
6HR MIN TEMP:  34; 6HR MAX TEMP:  37;

LEXINGTON      CLOUDY    35  23  62 NW20G33   30.06R WCI  24
MCCOOK         CLOUDY    36  25  64 NW17      30.10R WCI  26
6HR MIN TEMP:  36; 6HR MAX TEMP:  42;

OGALLALA       MOCLDY    33  22  66 N23G32    30.13R WCI  20
$$

NEZ005>010-023>029-035>040-094-261300-
NORTH CENTRAL NEBRASKA

CITY           SKY/WX    TMP DP  RH WIND       PRES   REMARKS
VALENTINE      CLOUDY    24  19  81 NW24G33   30.14R WCI   8
6HR MIN TEMP:  24; 6HR MAX TEMP:  36; 6HR PCP: TRACE;

AINSWORTH      CLOUDY    24  20  86 N30       30.11R WCI   6
BROKEN BOW     CLOUDY    30  21  69 N32G49    30.05R WCI  14
6HR MIN TEMP:  30; 6HR MAX TEMP:  38;

O`NEILL        CLOUDY    27  27  97 NW30G38   30.03R FOG     WCI  11
ORD            CLOUDY    30  23  75 NW28G43   30.02R WCI  15
6HR MIN TEMP:  30; 6HR MAX TEMP:  37; 6HR PCP: TRACE;

THEDFORD       CLOUDY    28  21  76 N26G37    30.11R WCI  12
$$

NEZ041-046>049-061>064-073>077-083>087-261300-
SOUTH CENTRAL NEBRASKA

CITY           SKY/WX    TMP DP  RH WIND       PRES   REMARKS
GRAND ISLAND   CLOUDY    36  24  62 NW32G41   29.98R WCI  23
6HR MIN TEMP:  34; 6HR MAX TEMP:  37;

AURORA         CLOUDY    37  25  61 NW22G33   29.96R WCI  26
HASTINGS       CLOUDY    37  22  54 NW24G38   29.98R WCI  26
6HR MIN TEMP:  35; 6HR MAX TEMP:  39;

HEBRON         CLOUDY    37  26  64 W9G16     29.98R WCI  30
HOLDREGE       CLOUDY    37  23  58 NW21G28   30.04R WCI  26
KEARNEY *      CLOUDY    36  19  51 W25G35    30.03R WCI  23
YORK           CLOUDY    36  28  75 NW23G29   29.94R WCI  24
$$

NEZ011>018-030>034-042>045-261300-
NORTHEAST NEBRASKA

CITY           SKY/WX    TMP DP  RH WIND       PRES   REMARKS
NORFOLK        CLOUDY    35  31  85 NW21G29   29.92R WCI  24
6HR MIN TEMP:  35; 6HR MAX TEMP:  38; 6HR PCP: TRACE;

ALBION         CLOUDY    32  25  74 NW30G40   29.97R WCI  18
BLAIR          CLOUDY    39  34  82 NW16G24   29.85R WCI  30
COLUMBUS *     CLOUDY    36  28  75 NW20G29   29.94R WCI  25
FREMONT        CLOUDY    38  35  87 NW24      29.89R WCI  27
TEKAMAH        CLOUDY    39  34  82 NW22      29.87R WCI  29
6HR MIN TEMP:  34; 6HR MAX TEMP:  39; 6HR PCP: TRACE;

WAYNE          CLOUDY    35  32  87 NW21      29.90R WCI  24
$$

NEZ050>053-065>068-078-088>093-261300-
SOUTHEAST NEBRASKA

CITY           SKY/WX    TMP DP  RH WIND       PRES   REMARKS
LINCOLN        CLOUDY    38  29  70 NW15      29.93R WCI  29
6HR MIN TEMP:  36; 6HR MAX TEMP:  42;

OMAHA EPPLEY   CLOUDY    39  34  82 NW17      29.87R WCI  30
6HR MIN TEMP:  35; 6HR MAX TEMP:  40; 6HR PCP:  0.02;

BEATRICE       PTCLDY    32  28  86 W9        29.93R WCI  24
FALLS CITY     MOCLDY    37  31  78 W14       29.90R WCI  28
6HR MIN TEMP:  36; 6HR MAX TEMP:  40; 6HR PCP: TRACE;

NEBRASKA CITY  CLOUDY    37  31  78 NW16      29.88R WCI  27
PLATTSMOUTH    CLOUDY    37  32  81 W15       29.86R WCI  28
$$

NEZ044-045-051>053-067-261300-
OMAHA AREA

CITY           SKY/WX    TMP DP  RH WIND       PRES   REMARKS
OMAHA EPPLEY   CLOUDY    39  34  82 NW17      29.87R WCI  30
6HR MIN TEMP:  35; 6HR MAX TEMP:  40; 6HR PCP:  0.02;

BLAIR          CLOUDY    39  34  82 NW16G24   29.85R WCI  30
FREMONT        CLOUDY    38  35  87 NW24      29.89R WCI  27
MILLARD        CLOUDY    39  34  80 NW14G21   29.87R WCI  31
OFFUTT AFB     CLOUDY    39  34  84 NW15      29.86R WCI  30
PLATTSMOUTH    CLOUDY    37  32  81 W15       29.86R WCI  28
WAHOO          CLOUDY    38  32  78 NW20G29   29.89R WCI  28
$$



USA.gov is the U.S. government's official web portal to all federal, state and local government web resources and services.